THOR ABLESTAR DEB, 147

Orbit data source: Space-Track

THOR ABLESTAR DEB, 147 is space debris in LEO originally from a launch on Thu, 29 Jun 1961 UTC launched from the Air Force Eastern Test Range (AFETR). Debris objects in space refer to the collection of defunct objects orbiting the Earth. Examples of debris include non-operational satellites, rocket bodies, and fragments generated from explosions, collisions, or faulty payload assembly.

Loading next visibility...
Identifier
147, 1961-015AH
Orbit
LEO
Country
Flag of USUS
Related business
Manufacturer
Unknown
Mission
Spacecraft
Bus & Motor
Unknown
Mass
Unknown
Launch date (UTC)
1961-06-29 (64 years ago)
Launch vehicle
Unknown
Launch site
Air Force Eastern Test Range (AFETR)
Object type
Payload
Rocket body
Debris
Shape & HBR
Unknown shape, 0.2 m
Radar Cross Section
Medium (>0.1 m² and <1 m²)

Expand to show TLE details & history
Last TLE update: 6 hours ago

TLE from 6 hours ago
0 THOR ABLESTAR DEB
1 00147U 61015AH  25304.22255533  .00001224  00000-0  56220-3 0  9993
2 00147  66.6167 235.7197 0058887 241.0070 118.5115 14.23728849301868
Epoch: 2025-10-31T05:20Z
TLE epoch observation values (Epoch: 2025-10-31T05:20:28.780Z)
Latitude
0.00003°
Longitude
115.82971°
Altitude
835.271 km
Speed
7.425 km/s
True Right ascension
15h 42m 52s
True Declination
0° 00' 00"
Sunlit
Object was in daylight at epoch
Visualization orbit readout
Latitude
Unknown
Longitude
Unknown
Altitude
Unknown
Speed
Unknown
Apparent Right ascension
Unknown
Apparent Declination
Unknown
Sunlit
N/A
Visualization observer readout
Local Sidereal Time
06:45:05
Azimuth
Unknown
Elevation
Unknown
Doppler factor
Unknown
Orbital elements
Apogee altitude
853.495 km
Perigee altitude
768.823 km
Semi-major axis
7,189.296 km
Eccentricity
0.00589
Inclination
66.6167°
RAAN
235.7197°
Arg. of periapsis
241.007°
True anomaly
119.10237°
Mean anomaly
118.5115°
Eccentric anomaly
118.80714°
Mean motion
3.56052 °/min
Orbital period
101.11 mins
BSTAR
0.0005622

Documentation

Showing up to 5 results
|